This is the latest recevied weather packets stored in our database for station/object W8CEN. If no packets are shown the sender has not sent any weather packets the latest 10 day(s).
| Time | Temp. | Humidity | Pressure | Rain* | Wind** | Luminosity | Snow |
|---|---|---|---|---|---|---|---|
| 1777763455 | 8.89° C | 47% | 995.3 hPa | 0 mm | - | 66 W/m² | - |
| 1777763153 | 8.89° C | 47% | 995.2 hPa | 0 mm | - | 69 W/m² | - |
| 1777762851 | 9.44° C | 43% | 995.3 hPa | 0 mm | - | 71 W/m² | - |
| 1777762546 | 9.44° C | 47% | 995.4 hPa | 0 mm | - | 72 W/m² | - |
| 1777762244 | 9.44° C | 44% | 995.3 hPa | 0 mm | - | 86 W/m² | - |
| 1777761939 | 9.44° C | 45% | 995.4 hPa | 0 mm | - | 111 W/m² | - |
| 1777761637 | 9.44° C | 46% | 995.4 hPa | 0 mm | - | 111 W/m² | - |
| 1777761335 | 9.44° C | 45% | 995.3 hPa | 0 mm | - | 106 W/m² | - |
| 1777761033 | 9.44° C | 43% | 995.2 hPa | 0 mm | - | 106 W/m² | - |
| 1777760729 | 9.44° C | 45% | 995.3 hPa | 0 mm | - | 108 W/m² | - |
| 1777760426 | 9.44° C | 48% | 995.2 hPa | 0 mm | - | 109 W/m² | - |
| 1777760121 | 9.44° C | 45% | 995.2 hPa | 0 mm | - | 107 W/m² | - |
| 1777759819 | 9.44° C | 44% | 995.4 hPa | 0 mm | - | 107 W/m² | - |
| 1777759514 | 9.44° C | 46% | 995.5 hPa | 0 mm | - | 103 W/m² | - |
| 1777759212 | 9.44° C | 46% | 995.4 hPa | 0 mm | - | 100 W/m² | - |
| 1777758909 | 9.44° C | 43% | 995.3 hPa | 0 mm | - | 88 W/m² | - |
| 1777758606 | 10° C | 47% | 995.5 hPa | 0 mm | - | 84 W/m² | - |
| 1777758303 | 10° C | 44% | 995.5 hPa | 0 mm | - | 118 W/m² | - |
| 1777758000 | 9.44° C | 46% | 995.3 hPa | 0 mm | - | 146 W/m² | - |
| 1777757696 | 9.44° C | 44% | 995.3 hPa | 0 mm | - | 166 W/m² | - |
| 1777757395 | 9.44° C | 45% | 995.4 hPa | 0 mm | - | 171 W/m² | - |
| 1777757093 | 9.44° C | 46% | 995.1 hPa | 0 mm | - | 125 W/m² | - |
| 1777756790 | 9.44° C | 48% | 995.4 hPa | 0 mm | - | 78 W/m² | - |
| 1777756486 | 9.44° C | 44% | 995.2 hPa | 0 mm | - | 68 W/m² | - |
| 1777756184 | 9.44° C | 41% | 995.3 hPa | 0 mm | - | 91 W/m² | - |
* Rain latest hour (hover to see other rain measurements)
** Current wind speed in m/s (hover to see current wind gust speed)